Location: Fauquembergues
(50.6005°N, 2.0987°E)
Time: 08:22:17
(UTC+00:00)

CZ-4 R/B - Pass Details

Date: 14 July 2020
Orbit: 682 x 752 km, 98.5° (Epoch: 14 August)

Event Time Altitude Azimuth Distance (km) Brightness Sun altitude
Rises 00:00:40 0° 18° (NNE) 3,082 8.6 -17.8°
Reaches altitude 10° 00:02:58 10° 23° (NNE) 2,169 7.4 -17.8°
Maximum altitude 00:07:36 52° 101° (E) 876 4.2 -17.7°
Enters shadow 00:09:37 31° 161° (SSE) 1,235 4.6 -17.7°
